Time,TemperatureF,DewpointF,PressureIn,WindDirection,WindDirectionDegrees,WindSpeedMPH,WindSpeedGustMPH,Humidity,HourlyPrecipIn,Conditions,Clouds,dailyrainin,SoftwareType,DateUTC
2013-01-04 00:03:00,20.0,20.0,30.31,NNW,340,4.0,6.0,99,0.00,,,-99.99,,2013-01-04 05:03:00,
2013-01-04 00:12:00,20.0,20.0,30.31,NNW,340,4.0,6.0,99,0.00,,,-99.99,,2013-01-04 05:12:00,
2013-01-04 00:22:00,19.0,19.0,30.31,NNW,333,5.0,10.0,99,0.00,,,-99.99,,2013-01-04 05:22:00,
2013-01-04 00:33:00,19.0,19.0,30.30,NW,325,4.0,11.0,99,0.00,,,-99.99,,2013-01-04 05:33:00,
2013-01-04 00:42:00,19.0,19.0,30.30,NW,325,4.0,11.0,99,0.00,,,-99.99,,2013-01-04 05:42:00,
2013-01-04 00:53:00,19.0,19.0,30.29,NNW,339,2.0,8.0,99,0.00,,,-99.99,,2013-01-04 05:53:00,
2013-01-04 01:02:00,19.0,19.0,30.29,NNW,336,3.0,7.0,99,0.00,,,-99.99,,2013-01-04 06:02:00,
2013-01-04 01:12:00,19.0,19.0,30.29,NNW,336,3.0,7.0,99,0.00,,,-99.99,,2013-01-04 06:12:00,
2013-01-04 01:22:00,19.0,19.0,30.30,NNE,30,5.0,7.0,99,0.00,,,-99.99,,2013-01-04 06:22:00,
2013-01-04 01:33:00,18.0,18.0,30.29,NNW,333,6.0,8.0,99,0.00,,,-99.99,,2013-01-04 06:33:00,
2013-01-04 01:42:00,18.0,18.0,30.29,NNW,333,6.0,8.0,99,0.00,,,-99.99,,2013-01-04 06:42:00,
2013-01-04 01:52:00,18.0,18.0,30.29,North,359,2.0,11.0,99,0.00,,,-99.99,,2013-01-04 06:52:00,
2013-01-04 02:02:00,18.0,18.0,30.30,NNE,13,5.0,7.0,99,0.00,,,-99.99,,2013-01-04 07:02:00,
2013-01-04 02:12:00,18.0,18.0,30.30,NNE,13,5.0,7.0,99,0.00,,,-99.99,,2013-01-04 07:12:00,
2013-01-04 02:22:00,18.0,18.0,30.29,NNW,332,3.0,9.0,99,0.00,,,-99.99,,2013-01-04 07:22:00,
2013-01-04 02:32:00,18.0,18.0,30.28,NNE,24,0.0,8.0,99,0.00,,,-99.99,,2013-01-04 07:32:00,
2013-01-04 02:42:00,18.0,18.0,30.28,NNE,24,0.0,8.0,99,0.00,,,-99.99,,2013-01-04 07:42:00,
2013-01-04 02:52:00,18.0,18.0,30.28,WNW,298,4.0,8.0,99,0.00,,,-99.99,,2013-01-04 07:52:00,
2013-01-04 03:02:00,18.0,18.0,30.28,WNW,293,7.0,9.0,99,0.00,,,-99.99,,2013-01-04 08:02:00,
2013-01-04 03:12:00,18.0,18.0,30.28,WNW,293,7.0,9.0,99,0.00,,,-99.99,,2013-01-04 08:12:00,
2013-01-04 03:22:00,18.0,18.0,30.28,NE,34,0.0,8.0,99,0.00,,,-99.99,,2013-01-04 08:22:00,
2013-01-04 03:32:00,18.0,18.0,30.29,North,8,4.0,7.0,99,0.00,,,-99.99,,2013-01-04 08:32:00,
2013-01-04 03:42:00,18.0,18.0,30.29,North,8,4.0,7.0,99,0.00,,,-99.99,,2013-01-04 08:42:00,
2013-01-04 03:53:00,18.0,18.0,30.29,WNW,301,4.0,9.0,99,0.00,,,-99.99,,2013-01-04 08:53:00,
2013-01-04 04:02:00,18.0,18.0,30.29,North,8,5.0,7.0,99,0.00,,,-99.99,,2013-01-04 09:02:00,